Location: Paris
(48.6709°N, 2.3750°E)
Time: 09:13:53
(UTC+02:00)

KKS-1 - Pass Details

Date: 04 July 2022
Orbit: 635 x 648 km, 98.2° (Epoch: 08 August)

Event Time Altitude Azimuth Distance (km) Brightness Sun altitude
Rises 00:31:34 0° 9° (N) 2,977 ? -16.0°
Reaches altitude 10° 00:33:51 10° 4° (N) 2,061 ? -16.2°
Maximum altitude 00:38:10 48° 291° (WNW) 846 ? -16.4°
Enters shadow 00:42:00 13° 218° (SW) 1,866 ? -16.6°
